Wind_Speed
22 23 24 26 26 26 27 27 27 27 29 28 28 28 28 28 28 27 27 26 26 25 25 25 25 26 27 27 27 27 27 26 26 26 25 25 26 26 26 27 27 28 29
21 22 22 24 25 27 27 27 27 27 27 28 28 28 28 27 26 26 25 25 25 25 24 25 25 26 26 27 27 27 27 27 27 26 26 26 26 27 27 27 27 28 29
21 22 23 25 25 26 27 27 25 26 26 27 26 27 26 25 24 24 25 25 25 24 24 25 25 26 27 27 26 26 26 26 26 26 26 26 26 26 27 27 28 28 28
22 24 25 25 27 27 26 25 24 24 25 26 25 25 24 24 24 25 26 26 25 25 25 24 25 25 26 25 25 25 26 25 25 26 26 27 27 27 27 27 27 28 29
23 25 25 25 26 26 25 24 24 23 24 24 24 24 23 23 24 24 25 24 24 24 24 24 24 25 25 25 24 24 25 24 25 26 26 27 27 27 27 27 28 28 29
23 23 24 25 25 26 26 26 25 24 23 23 23 22 21 22 22 22 23 23 23 23 24 24 24 24 24 24 24 24 24 24 25 25 26 27 27 28 28 28 28 29 29
23 22 23 24 24 24 24 25 24 24 23 23 22 21 21 21 21 21 22 22 22 22 22 23 23 23 24 24 24 24 23 24 25 25 25 26 27 28 28 28 28 28 29
22 24 24 23 22 22 23 23 24 24 23 22 22 22 21 21 22 21 21 22 22 23 22 22 22 22 23 23 24 23 23 23 24 25 26 27 27 28 28 28 28 28 28
23 23 22 22 22 23 23 23 24 24 23 23 23 23 21 21 21 22 22 22 22 22 21 22 22 22 23 23 23 23 23 24 24 25 25 26 27 27 27 27 27 27 28
23 23 23 23 23 23 24 24 24 23 23 23 24 23 21 22 22 21 20 20 21 21 21 21 22 22 22 22 22 23 23 24 25 24 24 25 26 26 26 27 27 27 28
21 22 23 25 25 24 24 24 24 23 22 22 23 21 21 20 20 19 19 19 20 20 20 21 21 21 21 21 22 22 23 24 24 24 24 25 25 25 25 26 26 27 27
22 23 23 23 24 24 25 24 23 22 22 22 21 20 20 19 19 18 19 20 20 20 20 20 20 20 21 21 22 23 23 23 24 24 24 25 25 25 24 24 25 25 26
23 23 23 23 24 24 23 23 22 21 20 20 19 19 19 18 18 19 19 20 20 19 20 19 19 20 21 21 22 23 23 23 24 24 24 24 24 24 24 24 24 24 24
23 23 23 23 22 23 22 21 20 19 18 18 17 17 17 18 18 18 19 19 19 18 19 19 19 20 21 22 23 23 23 22 23 23 23 23 22 22 22 23 23 23 23
24 23 22 21 20 20 19 17 16 15 16 15 15 15 16 17 16 17 18 18 18 18 18 19 19 20 21 21 21 22 22 22 21 21 21 21 21 21 21 21 22 23 23
21 21 21 20 19 18 16 15 13 13 13 13 14 14 14 14 15 16 16 16 17 17 18 19 19 20 19 20 21 22 21 21 21 20 20 20 20 20 20 21 22 22 22
20 19 19 18 17 15 14 12 11 11 12 12 13 13 13 13 14 15 16 16 16 17 18 18 19 19 19 20 21 21 21 21 20 20 20 20 20 19 20 21 21 21 21
18 17 16 16 14 12 12 11 11 12 11 11 12 12 13 13 14 15 15 15 16 16 16 17 18 19 20 21 21 21 21 21 21 21 21 20 20 20 20 20 21 21 21
17 15 14 14 12 11 11 10 10 10 10 11 12 12 13 14 14 14 15 16 16 17 17 18 19 20 21 21 21 21 22 22 21 21 21 20 20 20 20 21 21 21 21
15 13 13 12 12 11 10 10 10 10 10 11 11 12 12 13 14 15 16 16 16 17 18 19 20 20 21 21 22 22 22 22 21 22 22 21 21 21 21 21 21 20 20
13 13 12 12 11 10 10 10 9 10 10 11 11 11 12 13 13 14 15 16 16 17 18 20 21 21 21 22 22 23 22 22 22 22 22 22 21 21 22 22 21 21 21
13 12 11 11 10 10 10 10 9 10 11 10 11 12 12 13 13 15 16 16 17 18 19 20 22 22 23 22 22 22 22 22 22 23 22 22 22 23 22 22 22 22 22
12 11 10 9 9 10 9 9 10 10 11 11 11 12 12 13 14 15 16 16 17 18 19 20 21 22 23 23 22 22 22 22 23 23 23 23 24 24 23 23 22 22 22
12 11 10 9 9 9 9 10 10 10 11 11 12 12 13 14 15 15 16 16 17 18 19 21 21 22 22 22 22 22 22 23 24 26 26 26 26 25 25 24 23 23 23
11 11 9 9 9 9 9 10 10 10 11 11 12 12 13 14 15 15 16 17 18 19 20 21 22 22 22 23 23 23 23 24 25 27 26 26 26 25 24 24 24 23 23
11 10 9 8 9 9 9 10 10 11 11 11 12 13 14 15 15 16 17 18 19 20 21 22 23 23 23 24 25 25 26 27 27 27 27 26 26 25 24 23 23 22 22
Wind_Direction
303 305 304 304 304 302 300 296 295 294 296 292 292 289 287 288 290 292 293 292 293 292 291 292 291 290 290 290 289 287 285 283 279 278 276 273 271 270 270 268 267 267 266
304 305 304 304 304 303 301 299 296 294 294 294 294 292 291 289 288 290 291 292 293 293 292 294 292 291 290 290 289 288 285 283 280 278 276 274 272 270 270 268 268 268 267
300 304 307 308 306 305 302 301 300 299 297 299 299 296 293 294 292 291 292 291 292 292 292 293 293 293 293 291 289 289 287 283 280 278 275 272 271 271 271 269 268 268 267
300 304 305 305 306 305 305 305 304 301 300 303 302 299 297 297 296 294 291 290 290 292 293 294 294 294 295 294 292 291 289 284 281 278 275 273 272 270 269 271 270 270 270
297 302 302 302 304 306 308 309 309 306 305 304 304 304 300 298 297 295 295 291 291 293 292 294 294 295 294 295 294 292 290 285 282 280 277 275 274 273 272 271 272 272 271
296 297 301 302 304 306 308 310 309 310 310 306 306 305 302 301 298 296 297 296 295 295 294 294 296 296 294 295 294 294 291 287 284 282 280 277 275 274 274 272 271 271 272
302 301 301 303 304 306 308 310 309 310 311 308 307 307 303 301 301 301 302 303 301 300 300 300 301 300 299 299 299 296 293 291 287 283 282 281 279 278 276 274 272 271 271
300 302 302 302 303 304 307 307 306 307 307 306 305 306 304 305 304 304 304 303 303 303 304 305 304 303 302 302 301 298 296 294 290 286 285 285 284 282 279 277 274 272 271
303 305 304 302 302 305 306 304 304 305 304 303 304 304 304 306 306 306 306 304 304 305 306 305 305 305 305 305 303 300 297 295 293 289 286 286 286 284 281 279 277 274 273
305 306 303 304 305 306 305 303 302 303 302 302 303 303 302 305 307 308 309 310 309 308 308 307 306 306 307 306 304 301 299 297 295 293 291 288 287 285 282 282 280 278 277
308 307 306 304 304 305 304 303 301 300 301 302 304 304 305 308 309 309 310 312 312 312 312 311 310 309 310 309 307 304 301 299 296 293 291 290 287 286 284 284 283 281 279
310 309 308 307 306 306 305 303 300 300 300 301 303 305 305 308 311 311 311 312 313 313 314 314 313 313 312 312 310 308 304 300 298 296 294 293 291 289 286 285 284 283 281
309 308 309 309 308 306 306 306 304 303 302 303 302 304 304 308 311 311 311 312 314 314 315 316 315 316 315 313 312 311 310 305 301 299 298 296 293 292 288 285 284 283 283
311 308 309 312 312 311 310 308 305 302 303 305 305 306 307 310 312 312 313 314 316 317 318 319 319 318 317 315 313 314 313 312 308 305 303 301 297 294 291 289 285 285 285
314 312 311 313 314 316 315 312 309 303 305 308 309 311 313 314 316 316 318 318 320 321 323 323 322 321 320 319 318 317 315 314 314 310 307 305 301 296 294 292 289 287 285
320 318 314 315 316 319 320 318 313 307 309 312 313 318 320 319 321 322 323 325 326 329 328 326 325 325 324 322 321 320 319 318 316 314 311 307 304 298 294 294 294 291 287
323 322 320 321 320 320 320 326 322 316 316 318 324 324 324 324 326 327 326 328 331 331 331 330 329 329 329 326 325 324 322 321 320 319 315 311 307 303 300 299 297 294 291
328 327 326 327 329 330 328 327 331 330 330 334 335 333 331 331 331 331 334 335 337 338 337 335 332 331 329 328 327 327 325 325 326 325 320 316 313 311 308 304 301 296 293
330 331 331 333 335 336 336 336 334 334 338 338 338 339 339 338 336 338 339 340 340 340 338 336 335 333 332 330 329 329 329 328 327 327 325 323 320 316 313 310 307 302 298
331 335 334 335 336 338 339 339 339 342 342 339 341 343 344 346 345 345 345 343 341 340 339 338 337 336 334 333 332 330 330 329 328 328 327 326 322 317 315 314 311 307 302
331 335 335 336 338 341 344 344 341 340 339 341 343 344 345 346 346 344 343 341 340 340 340 340 338 336 334 333 332 331 330 329 329 328 326 324 324 320 317 315 312 307 304
333 334 335 339 341 343 345 346 342 340 340 342 344 345 346 347 347 345 342 341 340 341 341 340 339 338 335 333 332 331 331 330 330 328 325 323 323 322 318 315 312 310 307
333 334 338 340 342 346 344 343 343 343 344 345 346 346 345 345 345 344 343 343 343 342 341 342 341 339 337 336 335 334 333 331 330 328 325 322 323 323 319 315 314 312 309
333 335 339 341 342 341 339 339 342 345 348 348 347 346 345 344 343 343 343 344 344 342 342 343 341 339 339 339 338 336 334 332 331 330 328 326 325 323 322 319 317 315 311
331 332 333 336 337 337 335 338 344 347 349 348 345 344 344 343 344 346 346 345 344 344 342 343 343 342 341 341 340 338 337 335 333 333 332 330 328 327 324 322 321 320 318
329 328 329 333 336 336 335 339 342 346 346 345 343 343 343 344 346 346 345 345 345 344 343 343 343 343 343 343 342 340 338 338 338 337 336 334 331 329 326 324 324 322 320
Height
5846 5844 5841 5839 5837 5834 5831 5828 5826 5823 5820 5817 5813 5811 5809 5807 5805 5803 5801 5799 5797 5795 5793 5791 5788 5786 5784 5782 5780 5778 5777 5775 5774 5773 5771 5771 5770 5769 5769 5768 5767 5767 5766
5841 5839 5837 5834 5831 5828 5825 5822 5820 5817 5814 5811 5808 5806 5803 5800 5799 5797 5795 5793 5791 5788 5786 5784 5782 5780 5777 5775 5773 5771 5769 5768 5766 5765 5764 5763 5763 5762 5761 5760 5760 5759 5758
5836 5834 5832 5829 5826 5823 5820 5816 5813 5810 5807 5804 5802 5799 5797 5794 5792 5790 5788 5786 5784 5782 5779 5777 5775 5772 5770 5768 5765 5763 5762 5760 5758 5757 5756 5755 5755 5754 5753 5752 5751 5751 5750
5831 5829 5826 5824 5820 5817 5813 5809 5806 5804 5801 5798 5796 5793 5791 5789 5786 5784 5782 5780 5777 5775 5773 5770 5768 5765 5763 5760 5758 5755 5754 5752 5750 5749 5748 5747 5747 5746 5745 5744 5743 5742 5742
5827 5824 5821 5818 5815 5811 5807 5804 5802 5799 5796 5793 5790 5787 5785 5783 5780 5778 5776 5773 5771 5769 5766 5763 5760 5758 5756 5753 5751 5748 5746 5744 5742 5741 5740 5739 5738 5737 5737 5736 5735 5733 5733
5821 5818 5815 5812 5809 5806 5803 5799 5797 5794 5791 5788 5785 5782 5780 5777 5775 5773 5770 5768 5765 5762 5759 5756 5753 5751 5749 5746 5744 5741 5738 5736 5734 5733 5731 5730 5729 5728 5728 5727 5726 5725 5724
5815 5813 5810 5807 5804 5801 5798 5794 5791 5788 5785 5783 5780 5777 5775 5772 5769 5767 5765 5762 5759 5756 5753 5750 5747 5744 5741 5739 5737 5734 5731 5729 5727 5725 5724 5722 5721 5720 5719 5718 5717 5716 5715
5810 5808 5805 5802 5799 5796 5792 5790 5787 5783 5781 5777 5775 5772 5769 5767 5764 5762 5759 5757 5754 5750 5747 5744 5741 5738 5735 5732 5729 5727 5725 5722 5720 5718 5716 5714 5712 5711 5709 5709 5708 5707 5706
5805 5802 5799 5796 5793 5790 5787 5784 5781 5778 5775 5772 5769 5767 5764 5761 5759 5756 5754 5751 5748 5745 5741 5738 5735 5732 5729 5726 5723 5720 5718 5716 5713 5711 5708 5706 5704 5702 5701 5699 5698 5698 5696
5800 5797 5793 5790 5787 5783 5781 5778 5775 5772 5770 5767 5764 5761 5759 5756 5754 5751 5749 5746 5742 5739 5736 5732 5729 5726 5723 5720 5717 5714 5711 5709 5706 5703 5701 5698 5696 5694 5692 5690 5689 5688 5687
5793 5790 5787 5784 5781 5778 5775 5772 5769 5766 5763 5761 5759 5756 5754 5751 5748 5746 5744 5741 5737 5734 5730 5727 5724 5720 5717 5714 5710 5707 5704 5701 5698 5696 5693 5690 5688 5686 5684 5682 5680 5679 5678
5787 5784 5781 5778 5774 5771 5769 5766 5763 5760 5758 5756 5754 5751 5749 5746 5744 5741 5739 5736 5732 5729 5725 5722 5719 5715 5712 5708 5704 5701 5697 5694 5691 5688 5685 5683 5680 5678 5676 5674 5672 5670 5669
5781 5779 5776 5772 5769 5765 5763 5760 5757 5754 5752 5751 5749 5747 5744 5742 5739 5736 5733 5730 5727 5724 5720 5717 5714 5710 5706 5703 5699 5695 5691 5688 5685 5681 5678 5675 5673 5670 5668 5666 5664 5663 5661
5775 5772 5769 5766 5763 5759 5757 5754 5752 5750 5748 5746 5744 5742 5740 5738 5735 5732 5729 5726 5722 5719 5716 5713 5709 5705 5702 5698 5694 5690 5685 5682 5678 5675 5672 5669 5666 5663 5661 5659 5657 5655 5654
5770 5767 5764 5760 5757 5755 5752 5749 5748 5746 5744 5742 5740 5738 5736 5734 5731 5728 5725 5722 5718 5715 5712 5708 5705 5701 5697 5693 5689 5685 5681 5677 5673 5670 5666 5663 5660 5657 5655 5652 5650 5648 5646
5765 5762 5759 5756 5753 5751 5748 5746 5744 5743 5741 5739 5737 5735 5733 5730 5728 5725 5722 5718 5715 5712 5708 5705 5701 5697 5693 5689 5684 5680 5676 5672 5668 5664 5661 5657 5654 5651 5649 5646 5644 5641 5639
5761 5758 5755 5752 5750 5747 5745 5743 5742 5740 5738 5736 5734 5732 5730 5728 5725 5722 5718 5715 5712 5709 5705 5701 5697 5693 5689 5685 5680 5676 5672 5667 5663 5660 5656 5652 5649 5646 5643 5640 5637 5635 5632
5758 5755 5752 5749 5747 5745 5743 5741 5740 5737 5735 5734 5732 5730 5727 5725 5722 5719 5715 5713 5710 5706 5702 5699 5695 5690 5686 5681 5677 5672 5668 5664 5659 5655 5651 5647 5644 5640 5637 5634 5631 5629 5626
5755 5752 5750 5748 5745 5743 5741 5740 5738 5736 5734 5732 5730 5728 5725 5722 5720 5716 5713 5711 5707 5704 5700 5696 5692 5688 5683 5678 5674 5669 5664 5660 5656 5651 5647 5643 5639 5636 5632 5629 5625 5623 5620
5753 5750 5748 5747 5744 5742 5740 5738 5736 5734 5733 5731 5729 5726 5724 5721 5718 5715 5712 5709 5705 5702 5698 5694 5689 5685 5680 5675 5670 5665 5661 5656 5652 5648 5643 5639 5634 5631 5627 5623 5620 5617 5614
5752 5749 5747 5745 5743 5741 5739 5737 5736 5734 5732 5729 5727 5725 5722 5720 5717 5714 5710 5707 5703 5699 5695 5691 5687 5682 5677 5672 5667 5662 5657 5653 5648 5644 5639 5635 5630 5626 5622 5618 5615 5611 5608
5751 5748 5746 5744 5742 5740 5738 5736 5735 5733 5731 5728 5726 5724 5721 5719 5715 5712 5709 5705 5701 5697 5693 5688 5684 5679 5674 5669 5664 5659 5654 5649 5644 5639 5635 5630 5626 5621 5617 5613 5609 5606 5603
5750 5748 5745 5743 5741 5739 5738 5736 5734 5732 5729 5727 5725 5722 5720 5717 5714 5710 5707 5703 5699 5695 5691 5686 5681 5676 5671 5666 5660 5655 5650 5645 5640 5635 5630 5625 5621 5616 5612 5607 5603 5600 5596
5748 5746 5745 5743 5741 5739 5737 5735 5733 5730 5728 5726 5724 5721 5718 5715 5712 5709 5705 5701 5697 5693 5689 5684 5679 5674 5669 5663 5657 5652 5647 5642 5636 5630 5625 5620 5615 5611 5606 5602 5598 5594 5590
5747 5745 5743 5741 5740 5738 5736 5734 5731 5729 5727 5725 5722 5720 5717 5714 5710 5707 5703 5699 5695 5690 5686 5682 5676 5671 5666 5660 5654 5649 5643 5638 5632 5626 5620 5615 5611 5606 5601 5596 5592 5588 5584
5746 5744 5742 5740 5739 5737 5735 5732 5730 5728 5726 5723 5721 5718 5715 5712 5708 5704 5701 5697 5693 5688 5683 5679 5673 5668 5662 5657 5651 5646 5640 5634 5628 5622 5616 5611 5605 5600 5596 5591 5587 5582 5578